GFSNE_prec_precacc24_231.txt.gz
Total_Precipitation_Accumulation
0.08 0.08 0.09 0.08 0.10 0.18 0.32 0.41 0.47 0.37 0.18 0.07 0.08 0.10 0.19 0.29 0.36 0.34 0.38 0.51 0.42 0.37 0.35 0.35 0.46 0.58 0.71 0.89 1.04 1.07 1.07 1.23 0.65 0.10 0.03 0.01 0.00 0.00
0.11 0.11 0.10 0.10 0.12 0.13 0.17 0.30 0.42 0.46 0.40 0.24 0.23 0.17 0.20 0.28 0.39 0.30 0.30 0.39 0.34 0.30 0.23 0.18 0.19 0.27 0.39 0.43 0.33 0.29 0.41 0.73 0.96 0.38 0.08 0.03 0.01 0.00
0.07 0.09 0.08 0.07 0.10 0.11 0.14 0.20 0.27 0.37 0.39 0.31 0.26 0.22 0.26 0.29 0.30 0.26 0.23 0.16 0.16 0.18 0.16 0.21 0.23 0.21 0.16 0.21 0.27 0.22 0.16 0.17 0.24 0.24 0.11 0.03 0.00 0.00
0.07 0.09 0.14 0.11 0.11 0.09 0.14 0.18 0.21 0.21 0.23 0.19 0.21 0.25 0.26 0.28 0.30 0.29 0.27 0.29 0.30 0.32 0.18 0.13 0.13 0.14 0.17 0.17 0.11 0.13 0.18 0.20 0.18 0.16 0.12 0.06 0.03 0.01
0.09 0.11 0.12 0.23 0.27 0.28 0.27 0.25 0.20 0.20 0.25 0.24 0.16 0.10 0.12 0.16 0.22 0.24 0.25 0.26 0.26 0.34 0.20 0.12 0.08 0.06 0.06 0.09 0.12 0.10 0.07 0.07 0.10 0.12 0.12 0.09 0.05 0.02
0.14 0.18 0.24 0.33 0.36 0.36 0.51 0.64 0.60 0.64 0.56 0.42 0.35 0.32 0.28 0.24 0.25 0.26 0.29 0.28 0.23 0.18 0.20 0.16 0.12 0.06 0.05 0.04 0.04 0.08 0.08 0.06 0.07 0.04 0.03 0.02 0.01 0.00
0.42 0.42 0.47 0.43 0.55 0.59 0.56 0.57 0.70 0.69 0.74 0.79 0.63 0.51 0.46 0.40 0.37 0.38 0.39 0.36 0.31 0.24 0.21 0.19 0.16 0.10 0.10 0.10 0.06 0.05 0.03 0.02 0.02 0.02 0.02 0.01 0.01 0.00
0.56 0.61 0.56 0.71 0.61 0.69 0.78 0.78 0.78 0.74 0.61 0.48 0.48 0.52 0.57 0.58 0.56 0.54 0.50 0.46 0.39 0.29 0.29 0.28 0.23 0.18 0.12 0.10 0.14 0.09 0.06 0.04 0.02 0.01 0.00 0.00 0.00 0.00
0.24 0.31 0.22 0.26 0.39 0.40 0.48 0.45 0.38 0.32 0.32 0.40 0.38 0.31 0.27 0.27 0.30 0.34 0.35 0.35 0.35 0.35 0.34 0.30 0.23 0.16 0.09 0.06 0.04 0.01 0.01 0.01 0.00 0.00 0.00 0.00 0.00 0.00
0.13 0.08 0.07 0.10 0.17 0.20 0.27 0.28 0.33 0.28 0.24 0.17 0.17 0.17 0.14 0.12 0.15 0.19 0.23 0.29 0.29 0.22 0.11 0.08 0.06 0.03 0.01 0.00 0.00 0.00 0.00 0.00 0.00 0.00 0.00 0.00 0.00 0.00
0.00 0.02 0.02 0.01 0.03 0.11 0.10 0.17 0.23 0.22 0.30 0.28 0.26 0.23 0.16 0.09 0.07 0.07 0.07 0.06 0.07 0.04 0.00 0.01 0.01 0.01 0.00 0.00 0.00 0.00 0.00 0.00 0.00 0.00 0.00 0.00 0.00 0.00
0.00 0.00 0.00 0.00 0.00 0.00 0.00 0.01 0.03 0.01 0.00 0.01 0.01 0.00 0.00 0.00 0.00 0.00 0.00 0.00 0.00 0.01 0.00 0.00 0.00 0.00 0.00 0.00 0.00 0.00 0.00 0.00 0.00 0.00 0.00 0.00 0.00 0.00
0.00 0.00 0.00 0.00 0.00 0.00 0.00 0.00 0.00 0.00 0.00 0.00 0.00 0.00 0.00 0.00 0.00 0.00 0.00 0.00 0.00 0.00 0.00 0.00 0.00 0.00 0.00 0.00 0.00 0.00 0.00 0.00 0.00 0.00 0.00 0.00 0.00 0.00
0.00 0.00 0.00 0.00 0.00 0.00 0.00 0.00 0.00 0.00 0.00 0.00 0.00 0.00 0.00 0.00 0.00 0.00 0.00 0.00 0.00 0.00 0.00 0.00 0.00 0.00 0.00 0.00 0.00 0.00 0.00 0.00 0.00 0.00 0.00 0.00 0.00 0.00
0.00 0.00 0.00 0.00 0.00 0.00 0.00 0.00 0.00 0.00 0.00 0.00 0.00 0.00 0.00 0.00 0.00 0.00 0.00 0.00 0.00 0.00 0.00 0.00 0.00 0.00 0.00 0.00 0.00 0.00 0.00 0.00 0.00 0.00 0.00 0.00 0.00 0.00
0.00 0.00 0.00 0.00 0.00 0.00 0.00 0.00 0.00 0.00 0.00 0.00 0.00 0.00 0.00 0.00 0.00 0.00 0.00 0.00 0.00 0.00 0.00 0.00 0.00 0.00 0.00 0.00 0.00 0.00 0.00 0.00 0.00 0.00 0.00 0.00 0.00 0.00
0.00 0.00 0.00 0.00 0.00 0.00 0.00 0.00 0.00 0.00 0.00 0.00 0.00 0.00 0.00 0.00 0.00 0.00 0.00 0.00 0.00 0.00 0.00 0.00 0.00 0.00 0.00 0.00 0.00 0.00 0.00 0.00 0.00 0.00 0.00 0.00 0.00 0.00
0.00 0.00 0.00 0.00 0.00 0.00 0.00 0.00 0.00 0.00 0.00 0.00 0.00 0.00 0.00 0.00 0.00 0.00 0.00 0.00 0.00 0.00 0.00 0.00 0.00 0.01 0.01 0.00 0.00 0.00 0.00 0.00 0.00 0.00 0.00 0.01 0.00 0.00
0.00 0.00 0.00 0.00 0.00 0.00 0.00 0.00 0.00 0.00 0.00 0.00 0.00 0.00 0.00 0.00 0.00 0.00 0.00 0.00 0.00 0.00 0.00 0.00 0.02 0.07 0.08 0.02 0.00 0.00 0.00 0.00 0.00 0.00 0.00 0.00 0.00 0.00
0.00 0.00 0.00 0.00 0.00 0.00 0.00 0.00 0.00 0.00 0.00 0.00 0.00 0.00 0.00 0.00 0.00 0.00 0.01 0.01 0.01 0.01 0.01 0.01 0.04 0.10 0.12 0.07 0.07 0.00 0.00 0.00 0.00 0.00 0.00 0.00 0.00 0.00
0.00 0.00 0.00 0.00 0.00 0.00 0.00 0.00 0.00 0.00 0.00 0.00 0.00 0.00 0.00 0.01 0.01 0.01 0.01 0.02 0.04 0.07 0.05 0.01 0.02 0.04 0.06 0.05 0.06 0.00 0.00 0.00 0.00 0.00 0.00 0.05 0.03 0.01
0.00 0.00 0.00 0.00 0.00 0.00 0.00 0.00 0.00 0.00 0.01 0.00 0.01 0.01 0.01 0.02 0.02 0.02 0.03 0.04 0.04 0.04 0.03 0.01 0.00 0.02 0.01 0.03 0.02 0.00 0.00 0.00 0.00 0.00 0.00 0.02 0.07 0.13
0.00 0.00 0.00 0.00 0.00 0.00 0.00 0.00 0.01 0.01 0.01 0.02 0.01 0.02 0.02 0.03 0.03 0.04 0.03 0.04 0.03 0.04 0.02 0.02 0.00 0.01 0.01 0.01 0.01 0.01 0.00 0.00 0.00 0.00 0.00 0.00 0.00 0.00

GFSNE_prec_precacc24_234.txt.gz
Total_Precipitation_Accumulation
0.06 0.06 0.07 0.04 0.06 0.13 0.25 0.32 0.37 0.29 0.13 0.06 0.07 0.10 0.19 0.29 0.36 0.34 0.38 0.51 0.42 0.37 0.35 0.35 0.46 0.58 0.71 0.90 1.06 1.20 1.41 1.75 1.63 0.77 0.24 0.16 0.10 0.06
0.07 0.09 0.09 0.08 0.08 0.08 0.14 0.25 0.35 0.40 0.38 0.23 0.23 0.17 0.20 0.28 0.39 0.30 0.30 0.40 0.34 0.30 0.23 0.18 0.19 0.28 0.40 0.44 0.35 0.32 0.53 1.02 1.50 1.24 0.65 0.39 0.26 0.16
0.05 0.07 0.07 0.07 0.09 0.08 0.10 0.16 0.24 0.35 0.38 0.31 0.26 0.22 0.26 0.29 0.30 0.26 0.23 0.16 0.16 0.19 0.17 0.21 0.26 0.26 0.20 0.22 0.28 0.23 0.18 0.22 0.38 0.70 0.58 0.37 0.34 0.27
0.05 0.07 0.08 0.07 0.07 0.07 0.11 0.14 0.12 0.15 0.21 0.19 0.21 0.25 0.26 0.28 0.30 0.29 0.27 0.29 0.30 0.35 0.23 0.21 0.19 0.18 0.20 0.18 0.13 0.16 0.20 0.22 0.20 0.24 0.34 0.27 0.19 0.18
0.07 0.07 0.07 0.14 0.18 0.17 0.17 0.14 0.11 0.13 0.19 0.22 0.16 0.10 0.12 0.16 0.22 0.24 0.25 0.26 0.26 0.36 0.24 0.26 0.26 0.21 0.14 0.10 0.13 0.12 0.12 0.15 0.19 0.22 0.26 0.22 0.16 0.14
0.08 0.10 0.13 0.15 0.18 0.25 0.40 0.48 0.45 0.54 0.52 0.41 0.34 0.33 0.28 0.25 0.25 0.27 0.30 0.29 0.24 0.19 0.22 0.25 0.27 0.23 0.18 0.11 0.08 0.09 0.15 0.16 0.15 0.13 0.15 0.17 0.15 0.13
0.16 0.30 0.26 0.26 0.32 0.44 0.49 0.52 0.65 0.67 0.73 0.79 0.64 0.52 0.47 0.42 0.39 0.39 0.40 0.38 0.33 0.26 0.23 0.24 0.24 0.24 0.27 0.24 0.16 0.12 0.08 0.07 0.10 0.10 0.09 0.09 0.07 0.03
0.34 0.38 0.46 0.56 0.46 0.61 0.74 0.76 0.76 0.73 0.61 0.48 0.48 0.52 0.58 0.60 0.57 0.54 0.51 0.47 0.41 0.32 0.34 0.35 0.33 0.31 0.28 0.26 0.32 0.23 0.16 0.11 0.07 0.06 0.05 0.04 0.02 0.01
0.19 0.27 0.20 0.22 0.28 0.29 0.43 0.44 0.38 0.32 0.32 0.40 0.38 0.31 0.28 0.28 0.31 0.35 0.37 0.36 0.37 0.39 0.39 0.37 0.32 0.27 0.22 0.19 0.17 0.13 0.10 0.08 0.07 0.04 0.02 0.01 0.01 0.00
0.11 0.08 0.07 0.08 0.16 0.19 0.26 0.28 0.33 0.28 0.24 0.17 0.17 0.18 0.14 0.13 0.15 0.20 0.24 0.30 0.31 0.24 0.13 0.12 0.12 0.09 0.06 0.04 0.02 0.01 0.00 0.00 0.00 0.00 0.00 0.00 0.00 0.00
0.00 0.01 0.02 0.01 0.03 0.11 0.10 0.17 0.23 0.22 0.30 0.28 0.26 0.23 0.16 0.09 0.08 0.07 0.07 0.06 0.07 0.04 0.00 0.01 0.01 0.01 0.01 0.01 0.00 0.00 0.00 0.00 0.00 0.00 0.00 0.00 0.00 0.00
0.00 0.00 0.00 0.00 0.00 0.00 0.00 0.01 0.03 0.01 0.00 0.01 0.01 0.00 0.00 0.00 0.00 0.00 0.00 0.00 0.00 0.01 0.00 0.00 0.00 0.00 0.00 0.00 0.00 0.00 0.00 0.00 0.00 0.00 0.00 0.00 0.00 0.00
0.00 0.00 0.00 0.00 0.00 0.00 0.00 0.00 0.00 0.00 0.00 0.00 0.00 0.00 0.00 0.00 0.00 0.00 0.00 0.00 0.00 0.00 0.00 0.00 0.00 0.00 0.00 0.00 0.00 0.00 0.00 0.00 0.00 0.00 0.00 0.00 0.00 0.00
0.00 0.00 0.00 0.00 0.00 0.00 0.00 0.00 0.00 0.00 0.00 0.00 0.00 0.00 0.00 0.00 0.00 0.00 0.00 0.00 0.00 0.00 0.00 0.00 0.00 0.00 0.00 0.00 0.00 0.00 0.00 0.00 0.00 0.00 0.00 0.00 0.00 0.00
0.00 0.00 0.00 0.00 0.00 0.00 0.00 0.00 0.00 0.00 0.00 0.00 0.00 0.00 0.00 0.00 0.00 0.00 0.00 0.00 0.00 0.00 0.00 0.00 0.00 0.00 0.00 0.00 0.00 0.00 0.00 0.00 0.00 0.00 0.00 0.00 0.00 0.00
0.00 0.00 0.00 0.00 0.00 0.00 0.00 0.00 0.00 0.00 0.00 0.00 0.00 0.00 0.00 0.00 0.00 0.00 0.00 0.00 0.00 0.00 0.00 0.00 0.00 0.00 0.00 0.00 0.00 0.00 0.00 0.00 0.00 0.00 0.00 0.00 0.00 0.00
0.00 0.00 0.00 0.00 0.00 0.00 0.00 0.00 0.00 0.00 0.00 0.00 0.00 0.00 0.00 0.00 0.00 0.00 0.00 0.00 0.00 0.00 0.00 0.00 0.00 0.00 0.00 0.00 0.00 0.00 0.00 0.00 0.00 0.00 0.00 0.00 0.00 0.00
0.00 0.00 0.00 0.00 0.00 0.00 0.00 0.00 0.00 0.00 0.00 0.00 0.00 0.00 0.00 0.00 0.00 0.00 0.00 0.00 0.00 0.00 0.00 0.00 0.00 0.00 0.01 0.00 0.00 0.00 0.00 0.00 0.00 0.00 0.00 0.01 0.00 0.00
0.00 0.00 0.00 0.00 0.00 0.00 0.00 0.00 0.00 0.00 0.00 0.00 0.00 0.00 0.00 0.00 0.00 0.00 0.00 0.00 0.00 0.00 0.00 0.00 0.02 0.06 0.08 0.02 0.00 0.00 0.00 0.00 0.00 0.00 0.00 0.00 0.00 0.00
0.00 0.00 0.00 0.00 0.00 0.00 0.00 0.00 0.00 0.00 0.00 0.00 0.00 0.00 0.00 0.00 0.00 0.00 0.01 0.01 0.01 0.01 0.01 0.01 0.04 0.10 0.12 0.06 0.06 0.00 0.00 0.00 0.00 0.00 0.00 0.00 0.00 0.00
0.00 0.00 0.00 0.00 0.00 0.00 0.00 0.00 0.00 0.00 0.00 0.00 0.01 0.01 0.00 0.01 0.01 0.01 0.01 0.01 0.03 0.06 0.05 0.01 0.02 0.04 0.06 0.05 0.05 0.00 0.00 0.00 0.00 0.00 0.00 0.05 0.03 0.01
0.00 0.00 0.00 0.00 0.00 0.00 0.00 0.00 0.00 0.00 0.01 0.01 0.01 0.01 0.01 0.02 0.02 0.02 0.02 0.03 0.03 0.04 0.03 0.01 0.00 0.02 0.01 0.03 0.02 0.00 0.00 0.00 0.00 0.00 0.00 0.02 0.07 0.11
0.00 0.00 0.00 0.00 0.00 0.00 0.01 0.01 0.01 0.01 0.02 0.02 0.02 0.02 0.03 0.03 0.03 0.03 0.03 0.03 0.03 0.04 0.02 0.02 0.00 0.00 0.00 0.00 0.01 0.01 0.00 0.00 0.00 0.00 0.00 0.00 0.00 0.00

GFSNE_prec_precacc24_240.txt.gz
Total_Precipitation_Accumulation
0.03 0.04 0.05 0.03 0.04 0.09 0.17 0.23 0.27 0.19 0.09 0.03 0.02 0.00 0.00 0.03 0.11 0.11 0.22 0.39 0.37 0.36 0.35 0.35 0.46 0.58 0.71 0.90 1.06 1.20 1.42 1.77 1.70 1.03 0.58 0.47 0.42 0.42
0.03 0.05 0.06 0.07 0.06 0.05 0.07 0.17 0.25 0.27 0.25 0.12 0.10 0.04 0.01 0.01 0.08 0.09 0.16 0.32 0.31 0.29 0.23 0.18 0.19 0.28 0.40 0.44 0.35 0.32 0.53 1.03 1.57 1.38 1.08 0.85 0.59 0.45
0.01 0.02 0.02 0.03 0.05 0.05 0.06 0.07 0.13 0.24 0.29 0.21 0.16 0.09 0.10 0.10 0.10 0.10 0.11 0.11 0.14 0.18 0.18 0.22 0.27 0.27 0.21 0.24 0.30 0.25 0.19 0.24 0.42 0.80 0.83 0.75 0.85 0.82
0.00 0.01 0.01 0.02 0.05 0.05 0.08 0.10 0.10 0.11 0.18 0.13 0.12 0.13 0.17 0.17 0.19 0.20 0.22 0.27 0.29 0.35 0.25 0.22 0.20 0.19 0.21 0.21 0.16 0.18 0.22 0.24 0.21 0.28 0.51 0.59 0.61 0.60
0.02 0.02 0.03 0.07 0.07 0.07 0.09 0.09 0.08 0.07 0.10 0.11 0.08 0.05 0.08 0.12 0.18 0.22 0.24 0.26 0.26 0.36 0.25 0.27 0.28 0.22 0.16 0.16 0.17 0.17 0.19 0.21 0.26 0.28 0.39 0.65 0.80 0.80
0.04 0.04 0.07 0.09 0.10 0.11 0.18 0.25 0.37 0.41 0.39 0.29 0.21 0.20 0.17 0.19 0.23 0.27 0.31 0.30 0.24 0.20 0.24 0.27 0.28 0.24 0.22 0.19 0.20 0.22 0.26 0.25 0.23 0.26 0.34 0.40 0.49 0.62
0.04 0.05 0.09 0.12 0.12 0.15 0.26 0.35 0.44 0.46 0.50 0.56 0.48 0.42 0.36 0.32 0.32 0.35 0.39 0.38 0.34 0.26 0.24 0.25 0.25 0.26 0.31 0.31 0.24 0.21 0.18 0.18 0.18 0.19 0.21 0.28 0.37 0.47
0.18 0.15 0.14 0.21 0.19 0.31 0.39 0.44 0.52 0.49 0.40 0.35 0.34 0.37 0.45 0.53 0.54 0.54 0.51 0.47 0.41 0.32 0.34 0.36 0.34 0.32 0.30 0.29 0.38 0.31 0.25 0.21 0.19 0.16 0.15 0.15 0.16 0.18
0.17 0.16 0.07 0.04 0.07 0.10 0.18 0.18 0.17 0.17 0.20 0.29 0.32 0.29 0.26 0.27 0.31 0.35 0.37 0.36 0.37 0.39 0.39 0.37 0.32 0.28 0.23 0.21 0.20 0.17 0.14 0.13 0.12 0.11 0.08 0.06 0.06 0.07
0.05 0.00 0.01 0.02 0.02 0.04 0.07 0.11 0.17 0.20 0.20 0.15 0.17 0.17 0.14 0.13 0.15 0.20 0.24 0.30 0.31 0.24 0.13 0.12 0.12 0.09 0.06 0.04 0.02 0.01 0.01 0.01 0.02 0.02 0.02 0.01 0.01 0.01
0.01 0.00 0.01 0.00 0.01 0.08 0.07 0.09 0.18 0.21 0.30 0.28 0.26 0.23 0.16 0.09 0.08 0.07 0.07 0.06 0.07 0.04 0.00 0.01 0.01 0.01 0.01 0.01 0.00 0.00 0.00 0.00 0.00 0.00 0.00 0.00 0.00 0.00
0.00 0.00 0.00 0.00 0.00 0.00 0.00 0.01 0.03 0.01 0.00 0.01 0.01 0.00 0.00 0.00 0.00 0.00 0.00 0.00 0.00 0.01 0.00 0.00 0.00 0.00 0.00 0.00 0.00 0.00 0.00 0.00 0.00 0.00 0.00 0.00 0.00 0.00
0.00 0.00 0.00 0.00 0.00 0.00 0.00 0.00 0.00 0.00 0.00 0.00 0.00 0.00 0.00 0.00 0.00 0.00 0.00 0.00 0.00 0.00 0.00 0.00 0.00 0.00 0.00 0.00 0.00 0.00 0.00 0.00 0.00 0.00 0.00 0.00 0.00 0.00
0.00 0.00 0.00 0.00 0.00 0.00 0.00 0.00 0.00 0.00 0.00 0.00 0.00 0.00 0.00 0.00 0.00 0.00 0.00 0.00 0.00 0.00 0.00 0.00 0.00 0.00 0.00 0.00 0.00 0.00 0.00 0.00 0.00 0.00 0.00 0.00 0.00 0.00
0.00 0.00 0.00 0.00 0.00 0.00 0.00 0.00 0.00 0.00 0.00 0.00 0.00 0.00 0.00 0.00 0.00 0.00 0.00 0.00 0.00 0.00 0.00 0.00 0.00 0.00 0.00 0.00 0.00 0.00 0.00 0.00 0.00 0.00 0.00 0.00 0.00 0.00
0.00 0.00 0.00 0.00 0.00 0.00 0.00 0.00 0.00 0.00 0.00 0.00 0.00 0.00 0.00 0.00 0.00 0.00 0.00 0.00 0.00 0.00 0.00 0.00 0.00 0.00 0.00 0.00 0.00 0.00 0.00 0.00 0.00 0.00 0.00 0.00 0.00 0.00
0.00 0.00 0.00 0.00 0.00 0.00 0.00 0.00 0.00 0.00 0.00 0.00 0.00 0.00 0.00 0.00 0.00 0.00 0.00 0.00 0.00 0.00 0.00 0.00 0.00 0.00 0.00 0.00 0.00 0.00 0.00 0.00 0.00 0.00 0.00 0.00 0.00 0.00
0.00 0.00 0.00 0.00 0.00 0.00 0.00 0.00 0.00 0.00 0.00 0.00 0.00 0.00 0.00 0.00 0.00 0.00 0.00 0.00 0.00 0.00 0.00 0.00 0.00 0.00 0.00 0.00 0.00 0.00 0.00 0.00 0.00 0.00 0.00 0.01 0.00 0.00
0.00 0.00 0.00 0.00 0.00 0.00 0.00 0.00 0.00 0.00 0.00 0.00 0.00 0.00 0.00 0.00 0.00 0.00 0.00 0.00 0.00 0.00 0.00 0.00 0.01 0.04 0.06 0.02 0.00 0.00 0.00 0.00 0.00 0.00 0.00 0.00 0.00 0.00
0.00 0.00 0.00 0.00 0.00 0.00 0.00 0.00 0.00 0.00 0.00 0.00 0.00 0.00 0.00 0.00 0.00 0.00 0.01 0.01 0.01 0.01 0.01 0.01 0.03 0.08 0.11 0.07 0.05 0.00 0.00 0.00 0.00 0.00 0.00 0.00 0.00 0.00
0.00 0.00 0.00 0.00 0.00 0.00 0.00 0.00 0.00 0.00 0.01 0.00 0.01 0.01 0.00 0.01 0.01 0.01 0.01 0.01 0.02 0.02 0.02 0.01 0.02 0.04 0.04 0.04 0.03 0.00 0.00 0.00 0.00 0.00 0.00 0.04 0.02 0.00
0.00 0.00 0.00 0.00 0.00 0.00 0.00 0.00 0.01 0.01 0.01 0.01 0.01 0.01 0.01 0.02 0.02 0.01 0.02 0.02 0.02 0.02 0.02 0.01 0.00 0.01 0.01 0.02 0.02 0.01 0.00 0.00 0.00 0.00 0.00 0.02 0.06 0.09
0.00 0.00 0.00 0.00 0.00 0.00 0.01 0.01 0.01 0.01 0.01 0.01 0.01 0.01 0.01 0.01 0.01 0.01 0.02 0.02 0.02 0.02 0.01 0.00 0.00 0.00 0.00 0.00 0.01 0.01 0.00 0.00 0.00 0.00 0.00 0.00 0.00 0.00

GFSNE_prec_precacc24_243.txt.gz
Total_Precipitation_Accumulation
0.03 0.04 0.03 0.02 0.03 0.06 0.16 0.22 0.28 0.20 0.09 0.03 0.03 0.00 0.00 0.00 0.01 0.01 0.01 0.14 0.16 0.22 0.30 0.34 0.46 0.58 0.71 0.91 1.07 1.20 1.42 1.77 1.71 1.04 0.58 0.47 0.42 0.42
0.03 0.04 0.05 0.05 0.05 0.04 0.06 0.16 0.25 0.28 0.27 0.12 0.11 0.05 0.01 0.00 0.02 0.02 0.03 0.12 0.14 0.17 0.17 0.16 0.19 0.27 0.40 0.45 0.35 0.33 0.53 1.03 1.57 1.39 1.09 0.86 0.60 0.45
0.00 0.01 0.01 0.02 0.03 0.03 0.04 0.06 0.12 0.23 0.31 0.21 0.15 0.09 0.09 0.09 0.09 0.07 0.06 0.04 0.06 0.11 0.14 0.20 0.25 0.26 0.22 0.25 0.31 0.25 0.19 0.24 0.42 0.80 0.83 0.76 0.85 0.83
0.00 0.01 0.00 0.01 0.03 0.04 0.07 0.08 0.10 0.11 0.21 0.16 0.12 0.13 0.14 0.14 0.16 0.17 0.17 0.20 0.22 0.28 0.21 0.19 0.19 0.19 0.21 0.21 0.17 0.19 0.22 0.24 0.21 0.28 0.51 0.59 0.61 0.60
0.02 0.02 0.02 0.05 0.06 0.06 0.07 0.07 0.06 0.05 0.08 0.11 0.08 0.05 0.06 0.10 0.16 0.20 0.22 0.22 0.23 0.34 0.24 0.27 0.28 0.22 0.17 0.16 0.18 0.17 0.19 0.22 0.26 0.29 0.39 0.65 0.80 0.80
0.04 0.04 0.07 0.08 0.09 0.08 0.07 0.09 0.12 0.21 0.27 0.24 0.22 0.20 0.17 0.17 0.21 0.25 0.29 0.28 0.24 0.20 0.25 0.28 0.28 0.24 0.22 0.20 0.20 0.22 0.27 0.25 0.23 0.26 0.35 0.41 0.50 0.63
0.03 0.05 0.09 0.12 0.09 0.10 0.12 0.15 0.26 0.34 0.38 0.45 0.46 0.41 0.36 0.31 0.31 0.33 0.35 0.35 0.32 0.26 0.24 0.25 0.25 0.26 0.32 0.31 0.24 0.21 0.19 0.18 0.19 0.19 0.21 0.29 0.39 0.49
0.08 0.09 0.10 0.17 0.11 0.17 0.29 0.36 0.46 0.40 0.33 0.31 0.31 0.35 0.44 0.50 0.51 0.50 0.49 0.45 0.39 0.32 0.34 0.36 0.34 0.32 0.30 0.29 0.38 0.31 0.25 0.21 0.19 0.16 0.15 0.15 0.16 0.18
0.14 0.11 0.06 0.03 0.04 0.03 0.09 0.13 0.14 0.14 0.14 0.20 0.23 0.23 0.22 0.22 0.22 0.27 0.32 0.33 0.36 0.38 0.39 0.37 0.32 0.28 0.23 0.21 0.20 0.17 0.14 0.13 0.12 0.11 0.08 0.06 0.06 0.07
0.03 0.01 0.00 0.00 0.00 0.00 0.02 0.04 0.07 0.09 0.10 0.06 0.06 0.09 0.09 0.10 0.14 0.19 0.24 0.30 0.31 0.24 0.13 0.12 0.12 0.09 0.06 0.04 0.02 0.01 0.01 0.01 0.02 0.02 0.02 0.01 0.01 0.01
0.02 0.00 0.00 0.00 0.00 0.02 0.01 0.02 0.06 0.11 0.21 0.22 0.21 0.20 0.15 0.09 0.08 0.07 0.07 0.06 0.07 0.04 0.00 0.01 0.01 0.01 0.01 0.01 0.00 0.00 0.00 0.00 0.00 0.00 0.00 0.00 0.00 0.00
0.00 0.00 0.00 0.00 0.00 0.00 0.00 0.00 0.01 0.00 0.00 0.01 0.01 0.00 0.00 0.00 0.00 0.00 0.00 0.00 0.00 0.01 0.00 0.00 0.00 0.00 0.00 0.00 0.00 0.00 0.00 0.00 0.00 0.00 0.00 0.00 0.00 0.00
0.00 0.00 0.00 0.00 0.00 0.00 0.00 0.00 0.00 0.00 0.00 0.00 0.00 0.00 0.00 0.00 0.00 0.00 0.00 0.00 0.00 0.00 0.00 0.00 0.00 0.00 0.00 0.00 0.00 0.00 0.00 0.00 0.00 0.00 0.00 0.00 0.00 0.00
0.00 0.00 0.00 0.00 0.00 0.00 0.00 0.00 0.00 0.00 0.00 0.00 0.00 0.00 0.00 0.00 0.00 0.00 0.00 0.00 0.00 0.00 0.00 0.00 0.00 0.00 0.00 0.00 0.00 0.00 0.00 0.00 0.00 0.00 0.00 0.00 0.00 0.00
0.00 0.00 0.00 0.00 0.00 0.00 0.00 0.00 0.00 0.00 0.00 0.00 0.00 0.00 0.00 0.00 0.00 0.00 0.00 0.00 0.00 0.00 0.00 0.00 0.00 0.00 0.00 0.00 0.00 0.00 0.00 0.00 0.00 0.00 0.00 0.00 0.00 0.00
0.00 0.00 0.00 0.00 0.00 0.00 0.00 0.00 0.00 0.00 0.00 0.00 0.00 0.00 0.00 0.00 0.00 0.00 0.00 0.00 0.00 0.00 0.00 0.00 0.00 0.00 0.00 0.00 0.00 0.00 0.00 0.00 0.00 0.00 0.00 0.00 0.00 0.00
0.00 0.00 0.00 0.00 0.00 0.00 0.00 0.00 0.00 0.00 0.00 0.00 0.00 0.00 0.00 0.00 0.00 0.00 0.00 0.00 0.00 0.00 0.00 0.00 0.00 0.00 0.00 0.00 0.00 0.00 0.00 0.00 0.00 0.00 0.00 0.00 0.00 0.00
0.00 0.00 0.01 0.00 0.00 0.00 0.00 0.00 0.00 0.00 0.00 0.00 0.00 0.00 0.00 0.00 0.00 0.00 0.00 0.00 0.00 0.00 0.00 0.00 0.00 0.00 0.00 0.00 0.00 0.00 0.00 0.00 0.00 0.00 0.00 0.01 0.00 0.00
0.00 0.00 0.00 0.00 0.00 0.00 0.00 0.00 0.00 0.00 0.00 0.00 0.00 0.00 0.00 0.00 0.00 0.00 0.00 0.00 0.00 0.00 0.00 0.00 0.01 0.03 0.04 0.01 0.00 0.00 0.00 0.00 0.00 0.00 0.00 0.00 0.00 0.00
0.00 0.00 0.00 0.00 0.00 0.00 0.00 0.00 0.00 0.00 0.00 0.00 0.00 0.00 0.00 0.00 0.00 0.00 0.01 0.01 0.01 0.01 0.01 0.01 0.03 0.06 0.09 0.07 0.05 0.00 0.00 0.00 0.00 0.00 0.00 0.00 0.00 0.00
0.00 0.00 0.00 0.00 0.00 0.00 0.00 0.00 0.00 0.00 0.01 0.00 0.01 0.01 0.00 0.00 0.00 0.01 0.01 0.01 0.02 0.01 0.01 0.01 0.02 0.03 0.03 0.03 0.02 0.00 0.00 0.00 0.00 0.00 0.00 0.04 0.01 0.00
0.00 0.00 0.00 0.00 0.00 0.00 0.00 0.00 0.01 0.01 0.01 0.01 0.01 0.00 0.00 0.01 0.01 0.01 0.01 0.01 0.01 0.01 0.02 0.01 0.00 0.00 0.00 0.02 0.02 0.01 0.00 0.00 0.00 0.00 0.00 0.02 0.05 0.07
0.00 0.00 0.00 0.00 0.00 0.00 0.01 0.01 0.01 0.01 0.01 0.01 0.01 0.01 0.01 0.01 0.01 0.01 0.01 0.02 0.01 0.02 0.00 0.00 0.00 0.00 0.00 0.00 0.01 0.01 0.00 0.00 0.00 0.00 0.00 0.00 0.00 0.00

GFSNE_prec_precacc24_249.txt.gz
Total_Precipitation_Accumulation
0.00 0.01 0.02 0.00 0.00 0.01 0.02 0.05 0.13 0.10 0.06 0.02 0.02 0.02 0.02 0.00 0.00 0.00 0.00 0.00 0.01 0.01 0.01 0.01 0.09 0.28 0.53 0.81 1.01 1.18 1.40 1.77 1.71 1.04 0.59 0.49 0.43 0.43
0.00 0.01 0.01 0.02 0.02 0.02 0.03 0.05 0.10 0.14 0.14 0.06 0.06 0.05 0.02 0.00 0.02 0.02 0.01 0.02 0.01 0.02 0.05 0.04 0.03 0.05 0.13 0.31 0.31 0.31 0.52 1.04 1.58 1.40 1.11 0.88 0.61 0.47
0.00 0.00 0.00 0.00 0.01 0.01 0.03 0.04 0.05 0.09 0.11 0.02 0.03 0.06 0.10 0.10 0.09 0.07 0.05 0.04 0.04 0.05 0.06 0.07 0.11 0.14 0.11 0.15 0.26 0.23 0.18 0.24 0.43 0.81 0.85 0.78 0.86 0.85
0.00 0.00 0.00 0.00 0.02 0.03 0.04 0.06 0.08 0.10 0.19 0.11 0.04 0.06 0.11 0.14 0.16 0.17 0.17 0.20 0.21 0.25 0.17 0.14 0.12 0.12 0.16 0.18 0.16 0.18 0.22 0.25 0.22 0.28 0.52 0.60 0.63 0.62
0.01 0.01 0.02 0.03 0.03 0.03 0.03 0.03 0.03 0.04 0.05 0.06 0.04 0.02 0.04 0.09 0.16 0.20 0.21 0.22 0.22 0.29 0.24 0.28 0.29 0.21 0.16 0.15 0.17 0.17 0.19 0.22 0.27 0.30 0.39 0.66 0.82 0.82
0.02 0.03 0.06 0.05 0.05 0.04 0.02 0.02 0.02 0.04 0.07 0.07 0.06 0.05 0.06 0.08 0.13 0.22 0.28 0.28 0.23 0.19 0.24 0.28 0.28 0.24 0.21 0.18 0.20 0.22 0.27 0.25 0.24 0.27 0.35 0.41 0.50 0.64
0.01 0.03 0.07 0.10 0.07 0.02 0.01 0.00 0.01 0.03 0.09 0.11 0.11 0.11 0.14 0.16 0.19 0.25 0.31 0.32 0.29 0.23 0.20 0.21 0.22 0.23 0.30 0.30 0.23 0.21 0.19 0.18 0.19 0.20 0.22 0.29 0.39 0.49
0.04 0.07 0.07 0.07 0.03 0.02 0.02 0.03 0.04 0.04 0.07 0.12 0.14 0.17 0.23 0.28 0.29 0.31 0.36 0.40 0.36 0.27 0.27 0.29 0.29 0.29 0.28 0.29 0.38 0.31 0.25 0.21 0.19 0.16 0.15 0.15 0.16 0.18
0.11 0.07 0.02 0.00 0.00 0.00 0.00 0.02 0.02 0.02 0.04 0.08 0.10 0.10 0.08 0.10 0.13 0.17 0.22 0.23 0.26 0.30 0.32 0.31 0.28 0.27 0.23 0.21 0.20 0.17 0.14 0.13 0.12 0.11 0.08 0.06 0.06 0.07
0.03 0.01 0.00 0.00 0.00 0.00 0.00 0.00 0.01 0.02 0.03 0.03 0.03 0.03 0.02 0.03 0.04 0.08 0.10 0.15 0.19 0.19 0.13 0.12 0.11 0.09 0.05 0.04 0.02 0.01 0.01 0.01 0.02 0.02 0.02 0.01 0.01 0.01
0.02 0.00 0.00 0.00 0.00 0.00 0.00 0.00 0.00 0.01 0.02 0.03 0.03 0.03 0.02 0.01 0.01 0.00 0.01 0.02 0.05 0.03 0.00 0.01 0.01 0.01 0.01 0.01 0.00 0.00 0.00 0.00 0.00 0.00 0.00 0.00 0.00 0.00
0.00 0.00 0.00 0.00 0.00 0.00 0.00 0.00 0.00 0.00 0.00 0.00 0.00 0.00 0.00 0.00 0.00 0.00 0.00 0.00 0.00 0.00 0.00 0.00 0.00 0.00 0.00 0.00 0.00 0.00 0.00 0.00 0.00 0.00 0.00 0.00 0.00 0.00
0.00 0.00 0.00 0.00 0.00 0.00 0.00 0.00 0.00 0.00 0.00 0.00 0.00 0.00 0.00 0.00 0.00 0.00 0.00 0.00 0.00 0.00 0.00 0.00 0.00 0.00 0.00 0.00 0.00 0.00 0.00 0.00 0.00 0.00 0.00 0.00 0.00 0.00
0.00 0.00 0.00 0.00 0.00 0.00 0.00 0.00 0.00 0.00 0.00 0.00 0.00 0.00 0.00 0.00 0.00 0.00 0.00 0.00 0.00 0.00 0.00 0.00 0.00 0.00 0.00 0.00 0.00 0.00 0.00 0.00 0.00 0.00 0.00 0.00 0.00 0.00
0.00 0.00 0.00 0.00 0.00 0.00 0.00 0.00 0.00 0.00 0.00 0.00 0.00 0.00 0.00 0.00 0.00 0.00 0.00 0.00 0.00 0.00 0.00 0.00 0.00 0.00 0.00 0.00 0.00 0.00 0.00 0.00 0.00 0.00 0.00 0.00 0.00 0.00
0.00 0.00 0.00 0.00 0.00 0.00 0.00 0.00 0.00 0.00 0.00 0.00 0.00 0.00 0.00 0.00 0.00 0.00 0.00 0.00 0.00 0.00 0.00 0.00 0.00 0.00 0.00 0.00 0.00 0.00 0.00 0.00 0.00 0.00 0.00 0.00 0.00 0.00
0.00 0.00 0.02 0.01 0.00 0.00 0.00 0.00 0.00 0.00 0.00 0.00 0.00 0.00 0.00 0.00 0.00 0.00 0.00 0.00 0.00 0.00 0.00 0.00 0.00 0.00 0.00 0.00 0.00 0.00 0.00 0.00 0.00 0.00 0.00 0.00 0.00 0.00
0.00 0.01 0.04 0.01 0.01 0.00 0.00 0.00 0.00 0.00 0.00 0.00 0.00 0.00 0.00 0.00 0.00 0.00 0.00 0.00 0.00 0.00 0.00 0.00 0.00 0.00 0.00 0.00 0.00 0.00 0.00 0.00 0.00 0.00 0.00 0.00 0.00 0.00
0.00 0.00 0.02 0.02 0.02 0.00 0.00 0.00 0.00 0.00 0.00 0.00 0.00 0.00 0.00 0.00 0.00 0.00 0.00 0.00 0.00 0.00 0.00 0.00 0.00 0.01 0.01 0.00 0.00 0.00 0.00 0.00 0.00 0.00 0.00 0.00 0.00 0.00
0.00 0.02 0.03 0.02 0.01 0.00 0.00 0.00 0.00 0.00 0.00 0.00 0.00 0.00 0.00 0.00 0.00 0.00 0.00 0.00 0.01 0.00 0.00 0.00 0.01 0.02 0.05 0.04 0.03 0.00 0.00 0.00 0.00 0.00 0.00 0.00 0.00 0.00
0.00 0.01 0.01 0.02 0.01 0.00 0.00 0.00 0.00 0.00 0.01 0.00 0.00 0.00 0.00 0.00 0.00 0.00 0.01 0.01 0.01 0.00 0.00 0.00 0.00 0.01 0.01 0.02 0.02 0.00 0.00 0.00 0.00 0.00 0.00 0.03 0.01 0.00
0.00 0.00 0.01 0.01 0.01 0.00 0.00 0.00 0.00 0.01 0.01 0.01 0.00 0.00 0.00 0.01 0.01 0.01 0.01 0.01 0.01 0.01 0.01 0.00 0.00 0.00 0.00 0.02 0.02 0.01 0.00 0.00 0.00 0.00 0.00 0.02 0.04 0.05
0.01 0.01 0.02 0.01 0.01 0.01 0.01 0.00 0.01 0.01 0.00 0.00 0.01 0.01 0.01 0.01 0.01 0.01 0.01 0.01 0.01 0.02 0.01 0.00 0.00 0.01 0.00 0.01 0.02 0.01 0.00 0.00 0.00 0.00 0.00 0.00 0.00 0.00

GFSNE_prec_precacc24_252.txt.gz
Total_Precipitation_Accumulation
0.00 0.00 0.00 0.00 0.00 0.01 0.01 0.04 0.11 0.07 0.03 0.01 0.01 0.03 0.02 0.00 0.00 0.00 0.00 0.00 0.00 0.00 0.00 0.00 0.01 0.03 0.08 0.35 0.61 0.74 0.95 1.56 1.67 1.04 0.60 0.49 0.44 0.44
0.00 0.00 0.00 0.00 0.01 0.01 0.02 0.03 0.07 0.13 0.13 0.02 0.00 0.01 0.01 0.01 0.01 0.01 0.01 0.01 0.01 0.01 0.02 0.02 0.02 0.02 0.02 0.04 0.08 0.13 0.28 0.85 1.56 1.40 1.11 0.89 0.62 0.48
0.00 0.00 0.00 0.00 0.00 0.01 0.03 0.03 0.03 0.07 0.12 0.03 0.01 0.01 0.02 0.02 0.02 0.03 0.04 0.04 0.04 0.06 0.06 0.04 0.08 0.10 0.07 0.05 0.06 0.07 0.08 0.16 0.41 0.82 0.85 0.79 0.87 0.87
0.00 0.00 0.00 0.00 0.02 0.02 0.03 0.05 0.05 0.07 0.17 0.12 0.03 0.02 0.02 0.00 0.00 0.05 0.12 0.18 0.21 0.26 0.20 0.15 0.11 0.08 0.10 0.13 0.12 0.10 0.12 0.17 0.19 0.27 0.52 0.60 0.63 0.63
0.01 0.01 0.01 0.03 0.03 0.02 0.02 0.02 0.02 0.02 0.03 0.04 0.03 0.02 0.02 0.02 0.02 0.04 0.06 0.17 0.25 0.31 0.26 0.30 0.31 0.23 0.14 0.11 0.14 0.14 0.16 0.20 0.26 0.29 0.40 0.66 0.82 0.83
0.02 0.02 0.04 0.04 0.04 0.03 0.02 0.01 0.01 0.01 0.01 0.01 0.02 0.03 0.03 0.03 0.06 0.08 0.11 0.16 0.20 0.20 0.26 0.28 0.29 0.24 0.20 0.17 0.18 0.20 0.25 0.24 0.24 0.27 0.35 0.41 0.50 0.64
0.01 0.03 0.06 0.10 0.06 0.02 0.00 0.00 0.00 0.00 0.01 0.03 0.03 0.04 0.06 0.10 0.13 0.14 0.15 0.17 0.16 0.15 0.18 0.22 0.22 0.22 0.27 0.27 0.21 0.20 0.18 0.18 0.19 0.20 0.22 0.29 0.39 0.49
0.04 0.07 0.07 0.07 0.02 0.02 0.02 0.02 0.02 0.01 0.00 0.01 0.01 0.03 0.06 0.10 0.13 0.15 0.17 0.20 0.22 0.19 0.21 0.24 0.26 0.25 0.24 0.24 0.33 0.29 0.25 0.22 0.19 0.16 0.15 0.15 0.16 0.18
0.11 0.07 0.02 0.00 0.00 0.00 0.00 0.01 0.01 0.01 0.01 0.00 0.00 0.02 0.04 0.04 0.04 0.06 0.10 0.11 0.15 0.20 0.25 0.26 0.25 0.24 0.21 0.19 0.20 0.17 0.14 0.13 0.12 0.11 0.08 0.06 0.06 0.07
0.03 0.01 0.00 0.00 0.00 0.00 0.00 0.00 0.00 0.00 0.01 0.01 0.01 0.02 0.01 0.01 0.01 0.01 0.02 0.07 0.12 0.14 0.11 0.11 0.11 0.09 0.05 0.04 0.02 0.01 0.01 0.01 0.02 0.02 0.02 0.01 0.01 0.01
0.02 0.00 0.00 0.00 0.00 0.00 0.00 0.00 0.00 0.00 0.00 0.00 0.00 0.00 0.00 0.00 0.00 0.00 0.00 0.00 0.02 0.02 0.00 0.01 0.01 0.01 0.01 0.01 0.00 0.00 0.00 0.00 0.00 0.00 0.00 0.00 0.00 0.00
0.00 0.00 0.00 0.00 0.00 0.00 0.00 0.00 0.00 0.00 0.00 0.00 0.00 0.00 0.00 0.00 0.00 0.00 0.00 0.00 0.00 0.00 0.00 0.00 0.00 0.00 0.00 0.00 0.00 0.00 0.00 0.00 0.00 0.00 0.00 0.00 0.00 0.00
0.00 0.00 0.00 0.00 0.00 0.00 0.00 0.00 0.00 0.00 0.00 0.00 0.00 0.00 0.00 0.00 0.00 0.00 0.00 0.00 0.00 0.00 0.00 0.00 0.00 0.00 0.00 0.00 0.00 0.00 0.00 0.00 0.00 0.00 0.00 0.00 0.00 0.00
0.00 0.00 0.00 0.00 0.00 0.00 0.00 0.00 0.00 0.00 0.00 0.00 0.00 0.00 0.00 0.00 0.00 0.00 0.00 0.00 0.00 0.00 0.00 0.00 0.00 0.00 0.00 0.00 0.00 0.00 0.00 0.00 0.00 0.00 0.00 0.00 0.00 0.00
0.00 0.00 0.00 0.00 0.00 0.00 0.00 0.00 0.00 0.00 0.00 0.00 0.00 0.00 0.00 0.00 0.00 0.00 0.00 0.00 0.00 0.00 0.00 0.00 0.00 0.00 0.00 0.00 0.00 0.00 0.00 0.00 0.00 0.00 0.00 0.00 0.00 0.00
0.00 0.00 0.00 0.00 0.00 0.00 0.00 0.00 0.00 0.00 0.00 0.00 0.00 0.00 0.00 0.00 0.00 0.00 0.00 0.00 0.00 0.00 0.00 0.00 0.00 0.00 0.00 0.00 0.00 0.00 0.00 0.00 0.00 0.00 0.00 0.00 0.00 0.00
0.00 0.00 0.02 0.02 0.01 0.00 0.00 0.00 0.00 0.00 0.00 0.00 0.00 0.00 0.00 0.00 0.00 0.00 0.00 0.00 0.00 0.00 0.00 0.00 0.00 0.00 0.00 0.00 0.00 0.00 0.00 0.00 0.00 0.00 0.00 0.00 0.00 0.00
0.00 0.01 0.04 0.01 0.01 0.01 0.00 0.00 0.00 0.00 0.00 0.00 0.00 0.00 0.00 0.00 0.00 0.00 0.00 0.00 0.00 0.00 0.00 0.00 0.00 0.00 0.00 0.00 0.00 0.00 0.00 0.00 0.00 0.00 0.00 0.00 0.00 0.00
0.00 0.00 0.02 0.03 0.02 0.01 0.00 0.00 0.00 0.00 0.00 0.00 0.00 0.00 0.00 0.00 0.00 0.00 0.00 0.00 0.00 0.00 0.00 0.00 0.00 0.01 0.00 0.00 0.00 0.00 0.00 0.00 0.00 0.00 0.00 0.00 0.00 0.00
0.00 0.02 0.03 0.03 0.01 0.00 0.00 0.00 0.00 0.00 0.00 0.00 0.00 0.00 0.00 0.00 0.00 0.00 0.00 0.00 0.00 0.00 0.00 0.00 0.01 0.01 0.04 0.04 0.03 0.00 0.00 0.00 0.00 0.00 0.00 0.00 0.00 0.00
0.00 0.01 0.01 0.02 0.01 0.00 0.00 0.00 0.00 0.00 0.00 0.00 0.00 0.00 0.00 0.00 0.00 0.00 0.00 0.00 0.01 0.00 0.01 0.00 0.00 0.01 0.02 0.02 0.02 0.00 0.00 0.00 0.00 0.00 0.00 0.03 0.01 0.00
0.00 0.00 0.01 0.02 0.01 0.00 0.00 0.00 0.00 0.00 0.00 0.00 0.00 0.00 0.00 0.01 0.01 0.01 0.01 0.01 0.01 0.01 0.01 0.00 0.00 0.00 0.01 0.02 0.02 0.01 0.00 0.00 0.00 0.00 0.00 0.01 0.04 0.04
0.01 0.01 0.02 0.01 0.02 0.01 0.01 0.00 0.00 0.00 0.00 0.00 0.01 0.01 0.01 0.01 0.01 0.01 0.01 0.02 0.01 0.02 0.01 0.00 0.00 0.00 0.01 0.01 0.02 0.00 0.00 0.00 0.00 0.00 0.00 0.00 0.00 0.00

GFSNE_prec_precacc24_258.txt.gz
Total_Precipitation_Accumulation
0.00 0.00 0.00 0.00 0.00 0.00 0.01 0.02 0.08 0.05 0.02 0.00 0.00 0.02 0.02 0.00 0.00 0.00 0.00 0.00 0.00 0.00 0.00 0.01 0.00 0.00 0.01 0.02 0.02 0.02 0.02 0.03 0.08 0.28 0.35 0.33 0.34 0.40
0.00 0.00 0.00 0.00 0.01 0.01 0.01 0.02 0.04 0.09 0.09 0.01 0.00 0.01 0.01 0.00 0.00 0.00 0.00 0.00 0.00 0.02 0.03 0.03 0.01 0.01 0.01 0.02 0.02 0.02 0.02 0.03 0.09 0.17 0.47 0.51 0.39 0.35
0.00 0.00 0.00 0.00 0.00 0.01 0.02 0.03 0.03 0.07 0.12 0.03 0.01 0.01 0.02 0.03 0.01 0.00 0.00 0.00 0.01 0.05 0.09 0.04 0.03 0.02 0.02 0.03 0.04 0.03 0.02 0.04 0.06 0.13 0.29 0.45 0.59 0.65
0.00 0.00 0.00 0.00 0.01 0.02 0.03 0.04 0.04 0.07 0.15 0.10 0.03 0.02 0.02 0.01 0.01 0.01 0.00 0.00 0.01 0.12 0.13 0.09 0.07 0.05 0.04 0.05 0.05 0.04 0.03 0.04 0.03 0.05 0.20 0.36 0.46 0.47
0.00 0.01 0.01 0.01 0.01 0.01 0.02 0.02 0.02 0.02 0.03 0.03 0.02 0.01 0.01 0.01 0.02 0.04 0.04 0.05 0.07 0.15 0.13 0.16 0.14 0.07 0.06 0.07 0.06 0.06 0.07 0.08 0.09 0.08 0.14 0.44 0.66 0.69
0.01 0.02 0.02 0.02 0.03 0.03 0.02 0.01 0.01 0.01 0.01 0.01 0.02 0.02 0.02 0.02 0.03 0.04 0.04 0.05 0.05 0.07 0.13 0.11 0.10 0.07 0.06 0.09 0.13 0.13 0.13 0.10 0.09 0.14 0.20 0.25 0.36 0.51
0.01 0.03 0.06 0.09 0.06 0.01 0.00 0.00 0.00 0.00 0.00 0.01 0.01 0.01 0.02 0.02 0.02 0.04 0.05 0.06 0.06 0.04 0.03 0.03 0.03 0.03 0.05 0.07 0.08 0.09 0.12 0.12 0.09 0.10 0.13 0.20 0.32 0.46
0.03 0.07 0.07 0.07 0.02 0.02 0.01 0.02 0.01 0.00 0.00 0.00 0.00 0.01 0.01 0.02 0.03 0.04 0.04 0.06 0.08 0.03 0.01 0.00 0.01 0.02 0.02 0.03 0.07 0.08 0.09 0.11 0.12 0.10 0.09 0.11 0.14 0.17
0.10 0.08 0.02 0.01 0.01 0.00 0.00 0.01 0.01 0.01 0.01 0.00 0.00 0.00 0.01 0.01 0.01 0.01 0.01 0.01 0.01 0.00 0.00 0.00 0.00 0.00 0.01 0.01 0.03 0.04 0.04 0.05 0.06 0.06 0.05 0.05 0.05 0.07
0.03 0.01 0.00 0.00 0.00 0.00 0.00 0.00 0.00 0.00 0.00 0.00 0.00 0.00 0.00 0.00 0.00 0.00 0.00 0.00 0.00 0.00 0.00 0.00 0.00 0.00 0.00 0.00 0.00 0.00 0.01 0.01 0.02 0.02 0.02 0.01 0.01 0.01
0.02 0.00 0.00 0.00 0.02 0.00 0.00 0.00 0.00 0.00 0.00 0.00 0.00 0.00 0.00 0.00 0.00 0.00 0.00 0.00 0.00 0.00 0.00 0.00 0.00 0.00 0.00 0.00 0.00 0.00 0.00 0.00 0.00 0.00 0.00 0.00 0.00 0.00
0.00 0.00 0.00 0.01 0.03 0.00 0.00 0.00 0.00 0.00 0.00 0.00 0.00 0.00 0.00 0.00 0.00 0.00 0.00 0.00 0.00 0.00 0.00 0.00 0.00 0.00 0.00 0.00 0.00 0.00 0.00 0.00 0.00 0.00 0.00 0.00 0.00 0.00
0.00 0.00 0.00 0.01 0.01 0.00 0.00 0.00 0.00 0.00 0.00 0.00 0.00 0.00 0.00 0.00 0.00 0.00 0.00 0.00 0.00 0.00 0.00 0.00 0.00 0.00 0.00 0.00 0.00 0.00 0.00 0.00 0.00 0.00 0.00 0.00 0.00 0.00
0.00 0.00 0.00 0.00 0.00 0.00 0.00 0.00 0.00 0.00 0.00 0.00 0.00 0.00 0.00 0.00 0.00 0.00 0.00 0.00 0.00 0.00 0.00 0.00 0.00 0.00 0.00 0.00 0.00 0.00 0.00 0.00 0.00 0.00 0.00 0.00 0.00 0.00
0.00 0.00 0.00 0.00 0.00 0.00 0.00 0.00 0.00 0.00 0.00 0.00 0.00 0.00 0.00 0.00 0.00 0.00 0.00 0.00 0.00 0.00 0.00 0.00 0.00 0.00 0.00 0.00 0.00 0.00 0.00 0.00 0.00 0.00 0.00 0.00 0.00 0.00
0.00 0.00 0.00 0.00 0.00 0.00 0.00 0.00 0.00 0.00 0.00 0.00 0.00 0.00 0.00 0.00 0.00 0.00 0.00 0.00 0.00 0.00 0.00 0.00 0.00 0.00 0.00 0.00 0.00 0.00 0.00 0.00 0.00 0.00 0.00 0.00 0.00 0.00
0.00 0.00 0.02 0.02 0.01 0.00 0.00 0.00 0.00 0.00 0.00 0.00 0.00 0.00 0.00 0.00 0.00 0.00 0.00 0.00 0.00 0.00 0.00 0.00 0.00 0.00 0.00 0.00 0.00 0.00 0.00 0.00 0.00 0.00 0.00 0.00 0.00 0.00
0.00 0.01 0.04 0.02 0.02 0.02 0.01 0.00 0.00 0.00 0.00 0.00 0.00 0.00 0.00 0.00 0.00 0.00 0.00 0.00 0.00 0.00 0.00 0.00 0.00 0.00 0.00 0.00 0.00 0.00 0.00 0.00 0.00 0.00 0.00 0.00 0.00 0.00
0.00 0.00 0.02 0.03 0.03 0.01 0.01 0.01 0.01 0.00 0.00 0.00 0.00 0.00 0.00 0.00 0.00 0.00 0.00 0.00 0.00 0.00 0.00 0.00 0.00 0.00 0.00 0.00 0.00 0.00 0.00 0.00 0.00 0.00 0.00 0.00 0.00 0.00
0.00 0.02 0.03 0.03 0.01 0.01 0.01 0.01 0.01 0.01 0.00 0.00 0.00 0.00 0.00 0.00 0.00 0.00 0.00 0.00 0.00 0.00 0.00 0.00 0.01 0.02 0.04 0.03 0.03 0.00 0.00 0.00 0.00 0.00 0.00 0.00 0.00 0.00
0.00 0.01 0.01 0.02 0.01 0.00 0.01 0.01 0.01 0.01 0.00 0.00 0.00 0.00 0.00 0.00 0.00 0.00 0.00 0.00 0.01 0.01 0.01 0.00 0.00 0.02 0.02 0.02 0.02 0.00 0.00 0.00 0.00 0.00 0.00 0.02 0.00 0.00
0.00 0.00 0.01 0.02 0.01 0.00 0.01 0.01 0.02 0.01 0.01 0.00 0.00 0.00 0.00 0.01 0.01 0.01 0.01 0.01 0.01 0.01 0.01 0.00 0.00 0.00 0.01 0.02 0.01 0.00 0.00 0.00 0.00 0.00 0.00 0.01 0.02 0.02
0.01 0.01 0.02 0.01 0.01 0.01 0.01 0.01 0.02 0.02 0.01 0.00 0.00 0.01 0.01 0.01 0.01 0.01 0.01 0.01 0.01 0.01 0.01 0.01 0.00 0.00 0.01 0.01 0.02 0.00 0.00 0.00 0.00 0.00 0.00 0.00 0.00 0.00